When you browse on this site, cookies collect data to enhance your experience and personalize the content and advertising you see.
Visit our Privacy Policy to learn more. By continuing to use the site, you agree to this use of cookies and data.
  • In France
  • List of Countries
  • For 7 days
  • Water Temperature
  • Weather Map
  • Weather Widgets
  • user-avatar
    Login

    Hourly Weather Stish

    Today, 24 February, Monday

    Time Temperature Precipitation Wind Pressure Humidity
    00:00 -3°C° 0 mm 4 mps 729 mmHg 89%
    01:00 -3°C° 0 mm 4 mps 729 mmHg 89%
    02:00 -2°C° 0 mm 3 mps 729 mmHg 87%
    03:00 -2°C° 0 mm 3 mps 728 mmHg 87%
    04:00 -2°C° 0 mm 3 mps 728 mmHg 88%
    05:00 -2°C° 0 mm 3 mps 727 mmHg 88%
    06:00 -2°C° 0 mm 3 mps 727 mmHg 88%
    07:00 -2°C° 0 mm 2 mps 727 mmHg 87%
    08:00 -2°C° 0 mm 2 mps 727 mmHg 87%
    09:00 -1°C° 0 mm 2 mps 727 mmHg 85%
    10:00 +2°C° 0 mm 1 mps 726 mmHg 83%
    11:00 +2°C° 0 mm 1 mps 726 mmHg 82%
    12:00 +2°C° 0 mm 1 mps 726 mmHg 82%
    13:00 +1°C° 0 mm 2 mps 726 mmHg 83%
    14:00 +2°C° 0 mm 2 mps 725 mmHg 84%
    15:00 +1°C° 0 mm 2 mps 726 mmHg 86%
    16:00 +1°C° 0 mm 2 mps 726 mmHg 88%
    17:00 -1°C° 0 mm 2 mps 726 mmHg 90%
    18:00 -1°C° 0 mm 3 mps 726 mmHg 89%
    19:00 -1°C° 0 mm 3 mps 727 mmHg 88%
    20:00 -1°C° 0 mm 3 mps 727 mmHg 86%
    21:00 -2°C° 0 mm 4 mps 728 mmHg 85%
    22:00 -2°C° 0 mm 5 mps 728 mmHg 85%
    23:00 -2°C° 0 mm 5 mps 728 mmHg 84%

    Tomorrow, 25 February, Tuesday

    Time Temperature Precipitation Wind Pressure Humidity
    00:00 -4°C° 0 mm 6 mps 729 mmHg 83%
    01:00 -4°C° 0 mm 6 mps 729 mmHg 81%
    02:00 -4°C° 0 mm 6 mps 730 mmHg 80%
    03:00 -4°C° 0 mm 6 mps 730 mmHg 78%
    04:00 -5°C° 0 mm 6 mps 731 mmHg 77%
    05:00 -5°C° 0 mm 6 mps 731 mmHg 75%
    06:00 -5°C° 0 mm 6 mps 731 mmHg 75%
    07:00 -5°C° 0 mm 6 mps 732 mmHg 75%
    08:00 -5°C° 0 mm 5 mps 732 mmHg 75%
    09:00 -4°C° 0 mm 5 mps 732 mmHg 71%
    10:00 -2°C° 0 mm 5 mps 732 mmHg 67%
    11:00 -1°C° 0 mm 5 mps 733 mmHg 63%
    12:00 -1°C° 0 mm 5 mps 733 mmHg 61%
    13:00 -1°C° 0 mm 4 mps 733 mmHg 60%
    14:00 0°C° 0 mm 4 mps 733 mmHg 58%
    15:00 -1°C° 0 mm 4 mps 733 mmHg 63%
    16:00 -1°C° 0 mm 3 mps 733 mmHg 67%
    17:00 -2°C° 0 mm 3 mps 733 mmHg 72%
    18:00 -2°C° 0 mm 3 mps 733 mmHg 75%
    19:00 -2°C° 0 mm 3 mps 732 mmHg 79%
    20:00 -3°C° 0 mm 4 mps 732 mmHg 82%
    21:00 -3°C° 0 mm 4 mps 732 mmHg 83%
    22:00 -4°C° 0 mm 5 mps 732 mmHg 84%
    23:00 -4°C° 0 mm 5 mps 731 mmHg 85%

    Day after tomorrow, 26 February, Wednesday

    Time Temperature Precipitation Wind Pressure Humidity
    00:00 -4°C° 0.1 mm 5 mps 731 mmHg 88%
    01:00 -4°C° 0.1 mm 6 mps 730 mmHg 92%
    02:00 -3°C° 0.1 mm 6 mps 730 mmHg 95%
    03:00 -3°C° 0 mm 6 mps 729 mmHg 95%
    04:00 -2°C° 0 mm 6 mps 729 mmHg 95%
    05:00 -2°C° 0 mm 6 mps 728 mmHg 95%
    06:00 -2°C° 0 mm 6 mps 728 mmHg 95%
    07:00 -1°C° 0 mm 5 mps 728 mmHg 95%
    08:00 -1°C° 0 mm 5 mps 727 mmHg 95%
    09:00 0°C° 0 mm 5 mps 727 mmHg 95%
    10:00 -1°C° 0 mm 6 mps 727 mmHg 94%
    11:00 -1°C° 0 mm 6 mps 727 mmHg 94%
    12:00 -1°C° 0.4 mm 6 mps 727 mmHg 94%
    13:00 -1°C° 0.4 mm 6 mps 727 mmHg 94%
    14:00 -1°C° 0.4 mm 6 mps 727 mmHg 93%
    15:00 -1°C° 0.1 mm 6 mps 727 mmHg 94%
    16:00 0°C° 0.1 mm 5 mps 727 mmHg 94%
    17:00 0°C° 0.1 mm 5 mps 727 mmHg 94%
    18:00 0°C° 0.1 mm 4 mps 727 mmHg 95%
    19:00 0°C° 0.1 mm 4 mps 727 mmHg 96%
    20:00 +1°C° 0.1 mm 3 mps 727 mmHg 96%
    21:00 +1°C° 0.3 mm 3 mps 727 mmHg 96%
    22:00 +1°C° 0.3 mm 3 mps 726 mmHg 96%
    23:00 +1°C° 0.3 mm 3 mps 726 mmHg 96%

    27 February, Thursday

    Time Temperature Precipitation Wind Pressure Humidity
    00:00 +1°C° 0.5 mm 3 mps 726 mmHg 96%
    01:00 0°C° 0.5 mm 4 mps 726 mmHg 95%
    02:00 0°C° 0.5 mm 4 mps 725 mmHg 95%
    03:00 0°C° 0.4 mm 4 mps 725 mmHg 96%
    04:00 0°C° 0.4 mm 5 mps 725 mmHg 96%
    05:00 0°C° 0.4 mm 5 mps 724 mmHg 96%
    06:00 0°C° 0 mm 5 mps 724 mmHg 96%
    07:00 0°C° 0 mm 5 mps 724 mmHg 97%
    08:00 +1°C° 0 mm 5 mps 724 mmHg 97%
    09:00 +1°C° 0.7 mm 5 mps 724 mmHg 97%
    10:00 +1°C° 0.7 mm 4 mps 724 mmHg 97%
    11:00 +1°C° 0.7 mm 4 mps 724 mmHg 97%
    12:00 +1°C° 0.4 mm 4 mps 724 mmHg 97%
    13:00 +2°C° 0.4 mm 3 mps 724 mmHg 97%
    14:00 +2°C° 0.4 mm 3 mps 724 mmHg 98%
    15:00 +2°C° 0.2 mm 3 mps 725 mmHg 98%
    16:00 +2°C° 0.2 mm 3 mps 725 mmHg 98%
    17:00 +2°C° 0.2 mm 3 mps 725 mmHg 97%
    18:00 +2°C° 0 mm 3 mps 725 mmHg 98%
    19:00 +1°C° 0 mm 3 mps 726 mmHg 98%
    20:00 +2°C° 0 mm 2 mps 726 mmHg 98%
    21:00 +2°C° 0 mm 2 mps 726 mmHg 97%
    22:00 +2°C° 0 mm 2 mps 726 mmHg 96%
    23:00 +1°C° 0 mm 2 mps 726 mmHg 96%

    28 February, Friday

    Time Temperature Precipitation Wind Pressure Humidity
    00:00 +1°C° 0 mm 2 mps 726 mmHg 96%
    01:00 +2°C° 0 mm 1 mps 725 mmHg 95%
    02:00 +1°C° 0 mm 1 mps 725 mmHg 95%
    03:00 -1°C° 0.2 mm 2 mps 724 mmHg 95%
    04:00 -1°C° 0.2 mm 2 mps 724 mmHg 96%
    05:00 -1°C° 0.2 mm 3 mps 723 mmHg 96%
    06:00 -2°C° 1.5 mm 4 mps 723 mmHg 97%
    07:00 -2°C° 1.5 mm 5 mps 723 mmHg 97%
    08:00 -2°C° 1.5 mm 5 mps 722 mmHg 98%
    09:00 -3°C° 1.2 mm 6 mps 722 mmHg 98%
    10:00 -3°C° 1.2 mm 6 mps 722 mmHg 98%
    11:00 -4°C° 1.2 mm 6 mps 722 mmHg 98%
    12:00 -4°C° 0.9 mm 7 mps 722 mmHg 97%
    13:00 -6°C° 0.9 mm 8 mps 722 mmHg 96%
    14:00 -6°C° 0.9 mm 8 mps 722 mmHg 94%
    15:00 -6°C° 0.2 mm 7 mps 723 mmHg 91%
    16:00 -7°C° 0.2 mm 7 mps 724 mmHg 88%
    17:00 -6°C° 0.2 mm 6 mps 724 mmHg 84%
    18:00 -8°C° 0 mm 6 mps 725 mmHg 84%
    19:00 -8°C° 0 mm 6 mps 726 mmHg 83%
    20:00 -9°C° 0 mm 6 mps 727 mmHg 83%
    21:00 -9°C° 0 mm 6 mps 728 mmHg 83%
    22:00 -10°C° 0 mm 6 mps 728 mmHg 83%
    23:00 -10°C° 0 mm 6 mps 728 mmHg 84%

    29 February, Saturday

    Time Temperature Precipitation Wind Pressure Humidity
    00:00 -10°C° 0 mm 6 mps 728 mmHg 83%
    01:00 -10°C° 0 mm 6 mps 729 mmHg 82%
    02:00 -10°C° 0 mm 6 mps 729 mmHg 81%
    03:00 -11°C° 0 mm 6 mps 729 mmHg 82%
    04:00 -11°C° 0 mm 6 mps 729 mmHg 82%
    05:00 -11°C° 0 mm 6 mps 729 mmHg 82%
    06:00 -11°C° 0 mm 6 mps 730 mmHg 82%
    07:00 -10°C° 0 mm 6 mps 730 mmHg 81%
    08:00 -10°C° 0 mm 6 mps 730 mmHg 80%
    09:00 -10°C° 0 mm 6 mps 730 mmHg 78%
    10:00 -9°C° 0 mm 6 mps 730 mmHg 77%
    11:00 -8°C° 0 mm 6 mps 730 mmHg 75%
    12:00 -8°C° 0 mm 6 mps 730 mmHg 76%
    13:00 -8°C° 0 mm 6 mps 730 mmHg 76%
    14:00 -6°C° 0 mm 5 mps 731 mmHg 76%
    15:00 -7°C° 0 mm 5 mps 731 mmHg 81%
    16:00 -7°C° 0 mm 5 mps 731 mmHg 86%
    17:00 -8°C° 0 mm 5 mps 731 mmHg 91%
    18:00 -8°C° 0 mm 4 mps 732 mmHg 90%
    19:00 -8°C° 0 mm 4 mps 732 mmHg 90%
    20:00 -8°C° 0 mm 4 mps 733 mmHg 89%
    21:00 -9°C° 0 mm 4 mps 733 mmHg 89%
    22:00 -9°C° 0 mm 4 mps 733 mmHg 89%
    23:00 -8°C° 0 mm 3 mps 734 mmHg 89%
    Show more